Location: Bretagne
(43.8474°N, 0.4650°W)
Time: 08:20:16
(UTC+00:00)

Cosmos 1697 Rocket - Pass Details

Date: 15 January 2026
Orbit: 830 x 844 km, 71.0° (Epoch: 17 February)

Event Time Altitude Azimuth Distance (km) Brightness Sun altitude
Rises 19:46:00 0° 334° (NNW) 3,406 6.2 -31.2°
Reaches altitude 10° 19:48:27 10° 334° (NNW) 2,469 5.4 -31.7°
Enters shadow 19:51:39 35° 333° (NNW) 1,328 3.8 -32.2°
